Ketchikan, AK

8:12 AM AKST on November 15, 2018 (GMT -0900)
Ketchikan International

Weather History for PAKT - March, 2018

Change the Weather History Date:

Saturday, March 10, 2018

  Actual Average Record
Temperature  
Mean Temperature 40 °F -  
Max Temperature 44 °F 44 °F 58 °F (1965)
Min Temperature 37 °F 32 °F 9 °F (2003)
Degree Days  
Heating Degree Days 24    
Moisture  
Dew Point 39 °F    
Average Humidity 87    
Maximum Humidity 97    
Minimum Humidity 68    
Precipitation  
Precipitation 0.98 in - - ()
Sea Level Pressure  
Sea Level Pressure 29.91 in    
Wind  
Wind Speed 13 mph (SE)    
Max Wind Speed 23 mph    
Max Gust Speed 33 mph    
Visibility 6 miles    
Events Rain    
Averages and records for this station are not official NWS values.
T = Trace of Precipitation, MM = Missing Value Source: NWS Daily Summary

Daily Weather History Graph

Daily Weather History Graph

Search for Another Location

Airport or City:

Astronomy

Mar. 10, 2018 Rise Set
Actual Time 6:14 AM AKST 5:40 PM AKST
Civil Twilight 5:37 AM AKST 6:17 PM AKST
Nautical Twilight 4:55 AM AKST 6:59 PM AKST
Astronomical Twilight 4:11 AM AKST 7:43 PM AKST
Moon 2:44 AM AKST (3/10) 10:45 AM AKST (3/10)
Length of Visible Light 12h 39m
Length of Day
11h 26m
Last Quarter, 37% of the Moon is Illuminated
Mar 10
Last Quarter
Mar 17
New
Mar 24
First Quarter
Mar 31
Full
Apr 7
Last Quarter

Hourly Weather History & Observations

Time (AKST) Temp. Windchill Dew Point Humidity Pressure Visibility Wind Dir Wind Speed Gust Speed Precip Events Conditions
12:05 AM 37.9 °F 35.5 °F 37.0 °F 97% 29.82 in 2.5 mi East 3.5 mph - 0.04 in Rain Rain
12:14 AM 37.9 °F 35.5 °F 37.0 °F 97% 29.82 in 2.5 mi ESE 3.5 mph - 0.07 in Rain Rain
12:27 AM 39.0 °F 31.8 °F 37.9 °F 96% 29.82 in 3.0 mi SE 11.5 mph - 0.09 in Rain Light Rain
12:38 AM 42.1 °F 34.9 °F 39.9 °F 92% 29.82 in 2.5 mi SE 13.8 mph - 0.12 in Rain Rain
12:53 AM 43.0 °F 34.8 °F 41.0 °F 93% 29.82 in 2.5 mi SE 18.4 mph 26.5 mph 0.15 in Rain Rain
1:53 AM 43.0 °F 35.7 °F 41.0 °F 93% 29.83 in 3.0 mi SE 15.0 mph 31.1 mph 0.17 in Rain Light Rain
2:53 AM 43.0 °F 34.8 °F 41.0 °F 93% 29.84 in 3.0 mi SE 18.4 mph 29.9 mph 0.13 in Rain Light Rain
2:57 AM 43.0 °F 34.5 °F 41.0 °F 93% 29.84 in 2.5 mi SE 19.6 mph 26.5 mph 0.01 in Rain Rain
3:10 AM 43.0 °F 34.5 °F 39.9 °F 89% 29.84 in 3.0 mi SE 19.6 mph 28.8 mph 0.05 in Rain Rain
3:53 AM 43.0 °F 34.8 °F 39.9 °F 89% 29.86 in 3.0 mi SE 18.4 mph 28.8 mph 0.17 in Rain Rain
4:53 AM 43.0 °F 34.8 °F 39.9 °F 89% 29.87 in 3.0 mi SE 18.4 mph 29.9 mph 0.16 in Rain Light Rain
5:35 AM 43.0 °F 34.2 °F 39.9 °F 89% 29.87 in 2.5 mi SE 20.7 mph 32.2 mph 0.14 in Rain Rain
5:46 AM 43.0 °F 34.8 °F 39.9 °F 89% 29.87 in 3.0 mi SE 18.4 mph 27.6 mph 0.18 in Rain Rain
5:53 AM 43.0 °F 35.1 °F 39.9 °F 89% 29.88 in 3.0 mi SE 17.3 mph 26.5 mph 0.19 in Rain Rain
6:01 AM 42.8 °F 34.3 °F 39.2 °F 87% 29.87 in 3.0 mi SE 19.6 mph 27.6 mph N/A Rain Light Rain
6:15 AM 42.8 °F 34.0 °F 39.2 °F 87% 29.88 in 3.0 mi SE 20.7 mph 29.9 mph N/A Rain Rain
6:53 AM 42.8 °F 34.0 °F 39.2 °F 87% 29.89 in 4.0 mi SE 20.7 mph 28.8 mph N/A Rain Light Rain
6:57 AM 43.0 °F 35.4 °F 39.0 °F 86% 29.89 in 2.5 mi SE 16.1 mph 28.8 mph 0.01 in Rain Light Rain
7:27 AM 43.0 °F 33.8 °F 39.0 °F 86% 29.90 in 3.0 mi SE 23.0 mph 33.4 mph 0.07 in Rain Light Rain
7:51 AM 42.8 °F 34.5 °F 39.2 °F 87% 29.90 in 6.0 mi SE 18.4 mph 25.3 mph N/A Rain Light Rain
7:53 AM 42.8 °F 34.3 °F 39.2 °F 87% 29.91 in 6.0 mi SE 19.6 mph 25.3 mph N/A Rain Light Rain
8:53 AM 42.8 °F 35.4 °F 39.2 °F 87% 29.93 in 10.0 mi SE 15.0 mph - N/A   Overcast
9:53 AM 42.8 °F 35.8 °F 39.2 °F 87% 29.95 in 10.0 mi SSE 13.8 mph - N/A Rain Light Rain
10:53 AM 42.1 °F 34.5 °F 37.9 °F 85% 29.97 in 10.0 mi SE 15.0 mph 21.9 mph 0.01 in Rain Light Rain
11:53 AM 42.8 °F 35.8 °F 39.2 °F 87% 29.97 in 10.0 mi SE 13.8 mph - N/A Rain Light Rain
12:53 PM 42.8 °F 35.8 °F 39.2 °F 87% 29.98 in 8.0 mi SE 13.8 mph - N/A Rain Light Rain
1:53 PM 42.8 °F 35.4 °F 39.2 °F 87% 29.98 in 8.0 mi SE 15.0 mph - N/A Rain Light Rain
2:53 PM 42.8 °F 36.2 °F 39.2 °F 87% 29.99 in 6.0 mi SSE 12.7 mph - N/A Rain Light Rain
3:53 PM 42.8 °F 34.8 °F 39.2 °F 87% 29.98 in 5.0 mi SE 17.3 mph - N/A Rain Light Rain
4:53 PM 42.8 °F 37.0 °F 39.2 °F 87% 29.98 in 10.0 mi SSE 10.4 mph - N/A Rain Light Rain
5:53 PM 43.0 °F 35.1 °F 37.9 °F 82% 29.97 in 10.0 mi SE 17.3 mph 25.3 mph 0.00 in Rain Light Rain
6:53 PM 42.1 °F 37.7 °F 37.9 °F 85% 29.99 in 10.0 mi South 6.9 mph - 0.00 in Rain Light Rain
7:53 PM 42.1 °F 39.2 °F 37.9 °F 85% 29.99 in 10.0 mi South 4.6 mph - 0.00 in   Overcast
8:53 PM 43.0 °F 39.5 °F 36.0 °F 76% 29.98 in 10.0 mi Variable 5.8 mph - N/A   Overcast
9:53 PM 42.1 °F 37.7 °F 36.0 °F 79% 29.96 in 10.0 mi South 6.9 mph - N/A   Overcast
10:53 PM 44.1 °F 39.0 °F 34.0 °F 68% 29.97 in 10.0 mi South 9.2 mph - N/A   Overcast
11:53 PM 44.1 °F 40.8 °F 34.0 °F 68% 29.96 in 10.0 mi SE 5.8 mph - N/A   Mostly Cloudy